When you browse on this site, cookies collect data to enhance your experience and personalize the content and advertising you see.
Visit our Privacy Policy to learn more. By continuing to use the site, you agree to this use of cookies and data.
  • In Hungary
  • List of Countries
  • For 7 days
  • Water Temperature
  • Satellite Maps
  • Weather Map
  • News
  • Weather Widgets
  • user-avatar
    Login

    Hourly Weather Dikanka

    Today, 25 April, Thursday

    Time Temperature Precipitation Wind Pressure Humidity
    00:00 +14°C° 0 mm 1 mps 755 mmHg 55%
    01:00 +14°C° 0 mm 1 mps 755 mmHg 57%
    02:00 +13°C° 0 mm 1 mps 755 mmHg 58%
    03:00 +13°C° 0 mm 1 mps 755 mmHg 60%
    04:00 +13°C° 0 mm 1 mps 755 mmHg 62%
    05:00 +12°C° 0 mm 1 mps 755 mmHg 63%
    06:00 +14°C° 0 mm 1 mps 755 mmHg 59%
    07:00 +16°C° 0 mm 1 mps 755 mmHg 55%
    08:00 +19°C° 0 mm 1 mps 755 mmHg 51%
    09:00 +21°C° 0 mm 1 mps 755 mmHg 47%
    10:00 +22°C° 0 mm 1 mps 755 mmHg 43%
    11:00 +22°C° 0 mm 0 mps 755 mmHg 38%
    12:00 +22°C° 0 mm 0 mps 755 mmHg 37%
    13:00 +22°C° 0 mm 0 mps 754 mmHg 36%
    14:00 +22°C° 0 mm 0 mps 754 mmHg 35%
    15:00 +24°C° 0 mm 1 mps 754 mmHg 38%
    16:00 +23°C° 0 mm 1 mps 753 mmHg 41%
    17:00 +23°C° 0 mm 1 mps 753 mmHg 44%
    18:00 +22°C° 0 mm 1 mps 753 mmHg 45%
    19:00 +21°C° 0 mm 1 mps 753 mmHg 47%
    20:00 +19°C° 0 mm 1 mps 753 mmHg 48%
    21:00 +19°C° 0 mm 1 mps 753 mmHg 49%
    22:00 +18°C° 0 mm 1 mps 753 mmHg 50%
    23:00 +18°C° 0 mm 1 mps 753 mmHg 51%

    Tomorrow, 26 April, Friday

    Time Temperature Precipitation Wind Pressure Humidity
    00:00 +18°C° 0 mm 1 mps 753 mmHg 51%
    01:00 +18°C° 0 mm 1 mps 752 mmHg 52%
    02:00 +17°C° 0 mm 2 mps 752 mmHg 52%
    03:00 +16°C° 0 mm 1 mps 752 mmHg 54%
    04:00 +16°C° 0 mm 1 mps 752 mmHg 55%
    05:00 +16°C° 0 mm 1 mps 752 mmHg 56%
    06:00 +18°C° 0 mm 1 mps 752 mmHg 56%
    07:00 +18°C° 0 mm 1 mps 752 mmHg 55%
    08:00 +19°C° 0 mm 1 mps 752 mmHg 55%
    09:00 +20°C° 0 mm 1 mps 752 mmHg 51%
    10:00 +22°C° 0 mm 1 mps 752 mmHg 46%
    11:00 +23°C° 0 mm 1 mps 752 mmHg 42%
    12:00 +23°C° 0 mm 1 mps 751 mmHg 40%
    13:00 +23°C° 0 mm 1 mps 751 mmHg 38%
    14:00 +23°C° 0 mm 2 mps 751 mmHg 36%
    15:00 +23°C° 0 mm 1 mps 750 mmHg 41%
    16:00 +22°C° 0 mm 1 mps 750 mmHg 45%
    17:00 +22°C° 0 mm 1 mps 750 mmHg 49%
    18:00 +21°C° 0 mm 1 mps 750 mmHg 51%
    19:00 +19°C° 0 mm 1 mps 750 mmHg 53%
    20:00 +18°C° 0 mm 1 mps 750 mmHg 54%
    21:00 +18°C° 0 mm 1 mps 749 mmHg 56%
    22:00 +16°C° 0 mm 1 mps 749 mmHg 58%
    23:00 +15°C° 0 mm 1 mps 749 mmHg 60%

    Day after tomorrow, 27 April, Saturday

    Time Temperature Precipitation Wind Pressure Humidity
    00:00 +15°C° 0 mm 1 mps 749 mmHg 60%
    01:00 +14°C° 0 mm 1 mps 749 mmHg 60%
    02:00 +14°C° 0 mm 1 mps 749 mmHg 61%
    03:00 +13°C° 0 mm 1 mps 749 mmHg 60%
    04:00 +13°C° 0 mm 1 mps 749 mmHg 60%
    05:00 +13°C° 0 mm 1 mps 748 mmHg 60%
    06:00 +15°C° 0 mm 1 mps 748 mmHg 55%
    07:00 +16°C° 0 mm 1 mps 748 mmHg 50%
    08:00 +19°C° 0 mm 1 mps 748 mmHg 45%
    09:00 +19°C° 0 mm 2 mps 748 mmHg 42%
    10:00 +21°C° 0 mm 3 mps 748 mmHg 40%
    11:00 +22°C° 0 mm 4 mps 747 mmHg 37%
    12:00 +22°C° 0 mm 4 mps 747 mmHg 37%
    13:00 +22°C° 0 mm 4 mps 747 mmHg 36%
    14:00 +23°C° 0 mm 5 mps 746 mmHg 36%
    15:00 +22°C° 0 mm 4 mps 746 mmHg 39%
    16:00 +22°C° 0 mm 3 mps 746 mmHg 43%
    17:00 +21°C° 0 mm 2 mps 745 mmHg 46%
    18:00 +20°C° 0 mm 2 mps 745 mmHg 49%
    19:00 +18°C° 0 mm 2 mps 745 mmHg 51%
    20:00 +17°C° 0 mm 2 mps 745 mmHg 54%
    21:00 +16°C° 0 mm 2 mps 745 mmHg 55%
    22:00 +16°C° 0 mm 2 mps 745 mmHg 56%
    23:00 +15°C° 0 mm 2 mps 744 mmHg 57%

    28 April, Sunday

    Time Temperature Precipitation Wind Pressure Humidity
    00:00 +15°C° 0 mm 2 mps 744 mmHg 58%
    01:00 +15°C° 0 mm 2 mps 744 mmHg 60%
    02:00 +13°C° 0 mm 3 mps 744 mmHg 61%
    03:00 +13°C° 0 mm 3 mps 744 mmHg 65%
    04:00 +12°C° 0 mm 3 mps 744 mmHg 68%
    05:00 +11°C° 0 mm 3 mps 744 mmHg 71%
    06:00 +13°C° 0 mm 3 mps 744 mmHg 64%
    07:00 +15°C° 0 mm 4 mps 744 mmHg 57%
    08:00 +17°C° 0 mm 4 mps 744 mmHg 50%
    09:00 +17°C° 0 mm 5 mps 744 mmHg 46%
    10:00 +19°C° 0 mm 5 mps 744 mmHg 42%
    11:00 +21°C° 0 mm 5 mps 744 mmHg 38%
    12:00 +21°C° 0 mm 5 mps 744 mmHg 38%
    13:00 +21°C° 0 mm 5 mps 743 mmHg 39%
    14:00 +22°C° 0 mm 4 mps 743 mmHg 39%
    15:00 +22°C° 0 mm 4 mps 743 mmHg 41%
    16:00 +22°C° 0 mm 3 mps 742 mmHg 44%
    17:00 +22°C° 0 mm 3 mps 742 mmHg 46%
    18:00 +20°C° 0 mm 2 mps 742 mmHg 50%
    19:00 +18°C° 0 mm 2 mps 743 mmHg 53%
    20:00 +18°C° 0 mm 1 mps 743 mmHg 56%
    21:00 +16°C° 0 mm 1 mps 743 mmHg 57%
    22:00 +16°C° 0 mm 1 mps 743 mmHg 58%
    23:00 +16°C° 0 mm 1 mps 743 mmHg 58%

    29 April, Monday

    Time Temperature Precipitation Wind Pressure Humidity
    00:00 +15°C° 0 mm 2 mps 743 mmHg 63%
    01:00 +13°C° 0 mm 3 mps 744 mmHg 69%
    02:00 +12°C° 0 mm 4 mps 744 mmHg 74%
    03:00 +10°C° 0 mm 5 mps 744 mmHg 78%
    04:00 +9°C° 0 mm 5 mps 744 mmHg 82%
    05:00 +8°C° 0 mm 6 mps 744 mmHg 86%
    06:00 +9°C° 0 mm 6 mps 745 mmHg 82%
    07:00 +10°C° 0 mm 6 mps 745 mmHg 79%
    08:00 +10°C° 0 mm 7 mps 745 mmHg 75%
    09:00 +10°C° 0 mm 7 mps 745 mmHg 73%
    10:00 +10°C° 0 mm 7 mps 746 mmHg 72%
    11:00 +11°C° 0 mm 7 mps 746 mmHg 70%
    12:00 +10°C° 0 mm 7 mps 746 mmHg 71%
    13:00 +10°C° 0 mm 7 mps 746 mmHg 71%
    14:00 +10°C° 0 mm 7 mps 746 mmHg 71%
    15:00 +9°C° 0 mm 7 mps 746 mmHg 72%
    16:00 +9°C° 0 mm 7 mps 746 mmHg 72%
    17:00 +9°C° 0 mm 7 mps 746 mmHg 72%
    18:00 +8°C° 0 mm 7 mps 746 mmHg 72%
    19:00 +6°C° 0 mm 7 mps 746 mmHg 72%
    20:00 +6°C° 0 mm 7 mps 746 mmHg 71%
    21:00 +6°C° 0 mm 7 mps 746 mmHg 71%
    22:00 +6°C° 0 mm 7 mps 746 mmHg 71%
    23:00 +6°C° 0 mm 7 mps 746 mmHg 71%

    30 April, Tuesday

    Time Temperature Precipitation Wind Pressure Humidity
    00:00 +5°C° 0.2 mm 7 mps 746 mmHg 74%
    01:00 +5°C° 0.2 mm 7 mps 746 mmHg 77%
    02:00 +5°C° 0.2 mm 7 mps 746 mmHg 80%
    03:00 +4°C° 0.7 mm 7 mps 747 mmHg 82%
    04:00 +4°C° 0.7 mm 7 mps 747 mmHg 84%
    05:00 +4°C° 0.7 mm 7 mps 747 mmHg 86%
    06:00 +4°C° 1 mm 7 mps 747 mmHg 87%
    07:00 +4°C° 1 mm 7 mps 747 mmHg 87%
    08:00 +4°C° 1 mm 7 mps 747 mmHg 87%
    09:00 +4°C° 1 mm 7 mps 747 mmHg 86%
    10:00 +4°C° 1 mm 7 mps 747 mmHg 86%
    11:00 +4°C° 1 mm 7 mps 747 mmHg 86%
    12:00 +4°C° 1.6 mm 7 mps 747 mmHg 86%
    13:00 +4°C° 1.6 mm 7 mps 747 mmHg 86%
    14:00 +4°C° 1.6 mm 7 mps 747 mmHg 86%
    15:00 +4°C° 0.9 mm 7 mps 747 mmHg 85%
    16:00 +4°C° 0.9 mm 7 mps 747 mmHg 85%
    17:00 +4°C° 0.9 mm 7 mps 747 mmHg 85%
    18:00 +4°C° 0.1 mm 7 mps 747 mmHg 85%
    19:00 +3°C° 0.1 mm 7 mps 747 mmHg 85%
    20:00 +3°C° 0.1 mm 7 mps 747 mmHg 85%
    21:00 +3°C° 0.1 mm 7 mps 746 mmHg 85%
    22:00 +3°C° 0.1 mm 7 mps 746 mmHg 85%
    23:00 +3°C° 0.1 mm 6 mps 746 mmHg 85%
    Show more